Regional Weather Roundup
Issued by NWS

Home | Current Version | Previous Version | Text Only | Print | Product List | Glossary Off
Versions: 1 2 3 4 5 6 7 8 9 10 11 12 13 14 15 16 17 18 19 20 21 22 23 24 25 26 27 28 29 30 31 32 33 34 35 36 37 38 39 40 41 42 43 44 45 46 47 48 49 50

000
ASUS45 KBOI 291810
RWRID

IDAHO REGIONAL WEATHER ROUNDUP
NATIONAL WEATHER SERVICE BOISE ID
1200 PM MDT WED JUL 29 2015

NOTE: "FAIR" INDICATES FEW OR NO CLOUDS BELOW 12000 FEET
WITH NO SIGNIFICANT WEATHER AND/OR OBSTRUCTIONS TO VISIBILITY

IDZ012-014-291900-
SOUTHWEST IDAHO


CITY           SKY/WX    TMP DP  RH WIND       PRES   REMARKS
BOISE          SUNNY     80  31  16 SE8       30.25F
CALDWELL       SUNNY     77  37  24 CALM      30.26F
MOUNTAIN HOME  SUNNY     77  32  19 VRB7      30.26F
$$

IDZ016-017-291900-
SOUTHCENTRAL IDAHO


CITY           SKY/WX    TMP DP  RH WIND       PRES   REMARKS
BURLEY         SUNNY     73  37  27 NE7       30.30F
JEROME         SUNNY     75  30  19 VRB7      30.31S
TWIN FALLS     SUNNY     76  35  22 NE12      30.28F
$$

IDZ019>023-291900-
SOUTHEAST IDAHO


CITY           SKY/WX    TMP DP  RH WIND       PRES   REMARKS
IDAHO FALLS    SUNNY     72  32  23 SE6       30.36S
POCATELLO      SUNNY     72  38  29 CALM      30.34F
REXBURG        SUNNY     67  34  29 CALM      30.36
$$

IDZ006-010-011-018-031-032-291900-
CENTRAL IDAHO MOUNTAINS


CITY           SKY/WX    TMP DP  RH WIND       PRES   REMARKS
MCCALL         SUNNY     69  39  33 VRB3      30.33S
HAILEY         SUNNY     68  43  40 SE7       30.38S
STANLEY          N/A     65  33  30 VRB3      30.42F
SALMON         SUNNY     64  43  45 CALM      30.32F
CHALLIS        SUNNY     67  40  37 NE5       30.36F
$$

IDZ002-004-006-007-026-291900-
NORTHERN IDAHO


CITY           SKY/WX    TMP DP  RH WIND       PRES   REMARKS
LEWISTON       SUNNY     78  41  26 CALM      30.19F
LOWELL           N/A     72  45  37 N3        30.23F
COEUR D`ALENE  SUNNY     75  41  29 SE7       30.22S
MULLAN PASS    SUNNY     62  36  37 VRB6      30.37S
$$


USA.gov is the U.S. government's official web portal to all federal, state and local government web resources and services.